Location: Newark
(34.9850°N, 80.4472°W)
Time: 21:09:55
(UTC+00:00)

Envisat - Visible Passes

Search period start: 18 January 2020 00:00
Search period end: 28 January 2020 00:00
Orbit: 764 x 766 km, 98.1° (Epoch: 18 January)

Date Brightness Start Highest point End Pass type
(mag) Time Alt. Az. Time Alt. Az. Time Alt. Az.
18 Jan 5.0 00:04:56 10° SSW 00:09:21 30° W 00:13:48 10° NW visible
18 Jan 6.4 10:40:35 10° ENE 10:42:01 11° E 10:43:27 10° ESE visible
18 Jan 3.3 23:27:25 10° S 23:32:29 73° WSW 23:37:34 10° NNW visible
19 Jan 4.1 11:39:44 10° NNE 11:44:41 51° E 11:49:36 10° S visible
20 Jan 5.9 00:31:51 10° SW 00:35:01 16° W 00:38:10 10° NW visible
20 Jan 5.7 11:03:54 10° NE 11:07:45 21° E 11:11:33 10° SE visible
20 Jan 4.5 23:53:18 10° SSW 23:58:01 39° W 00:02:45 10° NNW visible
21 Jan 3.0 23:16:07 10° SSE 23:21:12 87° ENE 23:26:18 10° NNW visible
22 Jan 4.6 11:28:37 10° NNE 11:33:22 39° E 11:38:05 10° SSE visible
23 Jan 5.6 00:19:49 10° SW 00:23:38 21° W 00:27:28 10° NW visible
23 Jan 6.1 10:53:12 10° NE 10:56:22 16° E 10:59:31 10° SE visible
23 Jan 4.0 23:41:46 10° S 23:46:41 50° W 23:51:37 10° NNW visible
24 Jan 3.4 11:53:49 10° NNE 11:58:54 73° ESE 12:03:57 10° S visible
24 Jan 3.0 23:04:54 10° SSE 23:09:55 68° ENE 23:14:58 10° N visible
25 Jan 6.3 00:47:56 10° WSW 00:49:20 11° W 00:50:46 10° WNW visible
25 Jan 5.1 11:17:34 10° NE 11:22:02 30° E 11:26:27 10° SSE visible
26 Jan 5.2 00:07:59 10° SSW 00:12:16 27° W 00:16:34 10° NW visible
26 Jan 6.3 10:42:51 10° ENE 10:44:58 12° E 10:47:05 10° ESE visible
26 Jan 3.5 23:30:21 10° S 23:35:23 66° W 23:40:26 10° NNW visible
27 Jan 3.9 11:42:36 10° NNE 11:47:36 56° E 11:52:34 10° S visible
